Weather History for KTSP - June, 2014

Change the Weather History Date:

Thursday, June 26, 2014

  Actual Average Record
Temperature  
Mean Temperature 63 °F -  
Max Temperature 73 °F 83 °F 82 °F (2011)
Min Temperature 53 °F 55 °F 42 °F (2012)
Degree Days  
Heating Degree Days 2    
Growing Degree Days 13 (Base 50)    
Moisture  
Dew Point 46 °F    
Average Humidity 54    
Maximum Humidity 88    
Minimum Humidity 35    
Precipitation  
Precipitation 0.00 in - - ()
Sea Level Pressure  
Sea Level Pressure 30.01 in    
Wind  
Wind Speed 16 mph (WNW)    
Max Wind Speed 29 mph    
Max Gust Speed 37 mph    
Visibility 10 miles    
Events      
Averages and records for this station are not official NWS values.
T = Trace of Precipitation, MM = Missing Value Source: NWS Daily Summary

Daily Weather History Graph

Daily Weather History Graph

Search for Another Location

Airport or City:

Trip Planner

Search our weather history database for the weather conditions in past years. The results will help you decide how hot, cold, wet, or windy it might be!

Date:

Astronomy

Jun. 26, 2014 Rise Set
Actual Time 5:41 AM PDT 8:12 PM PDT
Civil Twilight 5:11 AM PDT 8:41 PM PDT
Nautical Twilight 4:34 AM PDT 9:18 PM PDT
Astronomical Twilight 3:53 AM PDT 9:59 PM PDT
Moon 5:21 AM PDT 7:40 PM PDT
Length of Visible Light 15h 30m
Length of Day
14h 30m
Waning Crescent, 0% of the Moon is Illuminated
Jun 26
Waning Crescent
Jun 27
New
Jul 5
First Quarter
Jul 12
Full
Jul 18
Last Quarter

Hourly Weather History & Observations

Time (PDT) Temp. Dew Point Humidity Pressure Visibility Wind Dir Wind Speed Gust Speed Precip Events Conditions
12:15 AM 66.2 °F 41.0 °F 40% 30.04 in 10.0 mi WNW 9.2 mph - N/A   Clear
12:35 AM 66.2 °F 41.0 °F 40% 30.04 in 10.0 mi West 10.4 mph - N/A   Clear
1:15 AM 64.4 °F 42.8 °F 45% 30.03 in 10.0 mi West 11.5 mph - N/A   Clear
1:35 AM 64.4 °F 44.6 °F 49% 30.03 in 10.0 mi West 11.5 mph - N/A   Clear
1:55 AM 62.6 °F 44.6 °F 52% 30.03 in 10.0 mi West 13.8 mph 19.6 mph N/A   Clear
2:15 AM 60.8 °F 46.4 °F 59% 30.03 in 10.0 mi West 13.8 mph 19.6 mph N/A   Clear
2:35 AM 59.0 °F 48.2 °F 67% 30.04 in 10.0 mi West 13.8 mph - N/A   Clear
2:55 AM 59.0 °F 48.2 °F 67% 30.04 in 10.0 mi West 17.3 mph 24.2 mph N/A   Clear
3:15 AM 59.0 °F 48.2 °F 67% 30.03 in 10.0 mi WNW 17.3 mph 20.7 mph N/A   Clear
3:35 AM 59.0 °F 48.2 °F 67% 30.03 in 10.0 mi WNW 13.8 mph - N/A   Clear
3:55 AM 57.2 °F 48.2 °F 72% 30.03 in 10.0 mi WNW 15.0 mph - N/A   Clear
4:15 AM 57.2 °F 48.2 °F 72% 30.02 in 10.0 mi WNW 13.8 mph 19.6 mph N/A   Clear
4:35 AM 55.4 °F 50.0 °F 82% 30.02 in 10.0 mi NW 12.7 mph - N/A   Clear
4:55 AM 55.4 °F 50.0 °F 82% 30.02 in 10.0 mi NW 12.7 mph - N/A   Clear
5:15 AM 53.6 °F 50.0 °F 88% 30.02 in 10.0 mi WNW 10.4 mph - N/A   Clear
5:35 AM 53.6 °F 50.0 °F 88% 30.02 in 9.0 mi WNW 12.7 mph - N/A   Clear
5:55 AM 53.6 °F 48.2 °F 82% 30.02 in 8.0 mi NW 12.7 mph - N/A   Clear
6:15 AM 53.6 °F 48.2 °F 82% 30.02 in 9.0 mi NW 15.0 mph - N/A   Clear
6:35 AM 53.6 °F 48.2 °F 82% 30.02 in 8.0 mi WNW 13.8 mph - N/A   Clear
6:55 AM 53.6 °F 48.2 °F 82% 30.02 in 9.0 mi WNW 13.8 mph - N/A   Clear
7:15 AM 53.6 °F 48.2 °F 82% 30.02 in 8.0 mi WNW 13.8 mph - N/A   Clear
7:35 AM 55.4 °F 48.2 °F 77% 30.02 in 8.0 mi WNW 11.5 mph - N/A   Clear
7:55 AM 55.4 °F 48.2 °F 77% 30.03 in 9.0 mi WNW 13.8 mph - N/A   Clear
8:15 AM 55.4 °F 46.4 °F 72% 30.03 in 8.0 mi WNW 15.0 mph - N/A   Clear
8:35 AM 57.2 °F 46.4 °F 67% 30.04 in 10.0 mi West 12.7 mph - N/A   Clear
8:55 AM 57.2 °F 44.6 °F 63% 30.04 in 9.0 mi NW 13.8 mph - N/A   Clear
9:15 AM 59.0 °F 42.8 °F 55% 30.03 in 10.0 mi NW 17.3 mph 20.7 mph N/A   Clear
9:35 AM 62.6 °F 41.0 °F 45% 30.03 in 10.0 mi NW 20.7 mph 25.3 mph N/A   Clear
9:55 AM 64.4 °F 41.0 °F 42% 30.03 in 10.0 mi NW 19.6 mph 26.5 mph N/A   Clear
10:15 AM 66.2 °F 39.2 °F 37% 30.02 in 9.0 mi NW 16.1 mph 26.5 mph N/A   Clear
10:35 AM 66.2 °F 39.2 °F 37% 30.02 in 10.0 mi NW 19.6 mph 25.3 mph N/A   Clear
10:55 AM 66.2 °F 39.2 °F 37% 30.03 in 10.0 mi NW 21.9 mph 27.6 mph N/A   Clear
11:15 AM 68.0 °F 39.2 °F 35% 30.02 in 9.0 mi NW 21.9 mph 27.6 mph N/A   Clear
11:35 AM 68.0 °F 41.0 °F 37% 30.01 in 10.0 mi NW 23.0 mph 29.9 mph N/A   Clear
11:55 AM 69.8 °F 41.0 °F 35% 30.01 in 9.0 mi NW 21.9 mph 29.9 mph N/A   Clear
12:15 PM 68.0 °F 41.0 °F 37% 30.01 in 10.0 mi NW 24.2 mph 32.2 mph N/A   Clear
12:35 PM 68.0 °F 42.8 °F 40% 30.01 in 9.0 mi NW 23.0 mph 29.9 mph N/A   Clear
12:55 PM 69.8 °F 42.8 °F 38% 30.01 in 9.0 mi NW 25.3 mph 32.2 mph N/A   Clear
1:15 PM 69.8 °F 44.6 °F 40% 30.00 in 9.0 mi NW 26.5 mph 33.4 mph N/A   Clear
1:35 PM 69.8 °F 46.4 °F 43% 30.00 in 10.0 mi NW 26.5 mph 35.7 mph N/A   Clear
2:15 PM 71.6 °F 48.2 °F 43% 30.00 in 10.0 mi NW 28.8 mph 36.8 mph N/A   Clear
2:35 PM 71.6 °F 48.2 °F 43% 30.00 in 9.0 mi NW 25.3 mph 35.7 mph N/A   Clear
2:55 PM 71.6 °F 46.4 °F 41% 29.99 in 10.0 mi NW 24.2 mph 32.2 mph N/A   Clear
3:15 PM 71.6 °F 46.4 °F 41% 29.99 in 10.0 mi NW 23.0 mph 29.9 mph N/A   Clear
3:35 PM 71.6 °F 46.4 °F 41% 29.98 in 10.0 mi NW 23.0 mph 32.2 mph N/A   Clear
3:55 PM 73.4 °F 46.4 °F 38% 29.98 in 10.0 mi WNW 20.7 mph 33.4 mph N/A   Partly Cloudy
4:15 PM 73.4 °F 46.4 °F 38% 29.97 in 10.0 mi NW 23.0 mph 29.9 mph N/A   Partly Cloudy
4:35 PM 71.6 °F 46.4 °F 41% 29.98 in 9.0 mi WNW 18.4 mph 31.1 mph N/A   Scattered Clouds
4:55 PM 71.6 °F 46.4 °F 41% 29.97 in 10.0 mi NW 24.2 mph 31.1 mph N/A   Mostly Cloudy
5:15 PM 71.6 °F 46.4 °F 41% 29.97 in 10.0 mi NW 23.0 mph 33.4 mph N/A   Mostly Cloudy
5:35 PM 71.6 °F 46.4 °F 41% 29.97 in 9.0 mi NW 28.8 mph 34.5 mph N/A   Scattered Clouds
5:55 PM 69.8 °F 48.2 °F 46% 29.97 in 10.0 mi NW 21.9 mph 34.5 mph N/A   Scattered Clouds
6:15 PM 68.0 °F 48.2 °F 49% 29.97 in 10.0 mi WNW 24.2 mph 32.2 mph N/A   Scattered Clouds
6:35 PM 68.0 °F 48.2 °F 49% 29.97 in 10.0 mi NW 23.0 mph 29.9 mph N/A   Mostly Cloudy
6:55 PM 68.0 °F 48.2 °F 49% 29.97 in 9.0 mi NW 13.8 mph 29.9 mph N/A   Scattered Clouds
7:35 PM 66.2 °F 48.2 °F 52% 29.98 in 9.0 mi NW 18.4 mph 28.8 mph N/A   Mostly Cloudy
7:55 PM 66.2 °F 46.4 °F 49% 29.98 in 10.0 mi NW 21.9 mph 29.9 mph N/A   Scattered Clouds
8:15 PM 64.4 °F 48.2 °F 56% 29.98 in 10.0 mi WNW 16.1 mph 24.2 mph N/A   Clear
8:35 PM 64.4 °F 46.4 °F 52% 29.98 in 10.0 mi West 15.0 mph 24.2 mph N/A   Clear
8:55 PM 64.4 °F 46.4 °F 52% 29.98 in 10.0 mi WNW 19.6 mph 23.0 mph N/A   Clear
9:15 PM 64.4 °F 46.4 °F 52% 29.99 in 10.0 mi WNW 15.0 mph 24.2 mph N/A   Clear
9:35 PM 64.4 °F 46.4 °F 52% 30.00 in 10.0 mi WNW 16.1 mph 20.7 mph N/A   Clear
9:55 PM 62.6 °F 46.4 °F 55% 30.01 in 10.0 mi WNW 13.8 mph 18.4 mph N/A   Clear
10:15 PM 62.6 °F 48.2 °F 59% 30.02 in 10.0 mi WNW 13.8 mph - N/A   Clear
10:35 PM 62.6 °F 46.4 °F 55% 30.02 in 10.0 mi WNW 13.8 mph - N/A   Clear
10:55 PM 62.6 °F 46.4 °F 55% 30.02 in 10.0 mi WNW 17.3 mph 20.7 mph N/A   Clear
11:15 PM 62.6 °F 46.4 °F 55% 30.02 in 10.0 mi West 15.0 mph 21.9 mph N/A   Clear
11:35 PM 62.6 °F 46.4 °F 55% 30.02 in 10.0 mi WNW 19.6 mph 24.2 mph N/A   Clear
11:55 PM 62.6 °F 46.4 °F 55% 30.01 in 10.0 mi WNW 17.3 mph 25.3 mph N/A   Clear